CW7386 Weather Reports


time (UTC)temp
C
wind
direction
speed
KPH
gust
KPH
rain 1hr
cm
rain 24hr
cm
rain mn
cm
humidity
%
barometer
mb
20260507031507 13 319 1.6 3.2 0.00 0.00 0.00 78 1020.2
20260507030012 13 264 0.0 0.0 0.00 0.00 0.00 77 1020.1
20260507024518 13 264 0.0 0.0 0.00 0.00 0.00 78 1020.2
20260507023023 13 272 0.0 4.8 0.00 0.00 0.00 77 1020.1
20260507021514 13 263 1.6 4.8 0.00 0.00 0.00 77 1020.1
20260507020010 13 288 0.0 8.0 0.00 0.00 0.00 77 1020.1
20260507014515 13 246 1.6 4.8 0.00 0.00 0.00 78 1020.0
20260507013024 13 222 3.2 6.4 0.00 0.00 0.00 77 1020.0
20260507011506 13 209 3.2 8.0 0.00 0.00 0.00 76 1020.0
20260507010010 13 221 3.2 11.3 0.00 0.00 0.00 76 1020.1
20260507004511 13 236 4.8 12.9 0.00 0.00 0.00 75 1020.2
20260507003026 13 264 3.2 14.5 0.00 0.00 0.00 75 1020.3
20260507001534 13 223 6.4 14.5 0.00 0.00 0.00 74 1020.2
20260507000012 13 222 3.2 9.7 0.00 0.00 0.00 74 1020.1
20260506234514 13 222 4.8 9.7 0.00 0.00 0.00 74 1020.1
20260506233016 13 214 4.8 11.3 0.00 0.00 0.00 73 1020.2
20260506231527 13 270 1.6 11.3 0.00 0.00 0.00 71 1020.3
20260506230025 14 135 4.8 14.5 0.00 0.00 0.00 71 1020.3
20260506224512 14 115 3.2 17.7 0.00 0.00 0.00 72 1020.3
20260506223014 14 248 4.8 16.1 0.00 0.00 0.00 72 1020.3
20260506221522 13 257 4.8 11.3 0.00 0.00 0.00 72 1020.4
20260506220003 13 246 1.6 11.3 0.00 0.00 0.00 74 1020.5
20260506214505 13 180 3.2 8.0 0.00 0.00 0.00 75 1020.4
20260506213005 13 213 6.4 11.3 0.00 0.00 0.00 74 1020.4
20260506211502 13 218 1.6 11.3 0.00 0.00 0.00 76 1020.5
20260506210004 13 159 4.8 8.0 0.00 0.00 0.00 77 1020.4
20260506204503 13 146 1.6 8.0 0.00 0.00 0.00 79 1020.4
20260506203003 13 215 1.6 8.0 0.00 0.00 0.00 80 1020.5
20260506201503 12 147 3.2 11.3 0.00 0.00 0.00 81 1020.4
20260506200002 12 188 1.6 8.0 0.00 0.00 0.00 82 1020.3
20260506194503 12 167 3.2 16.1 0.00 0.00 0.00 84 1020.2
20260506193006 12 246 3.2 8.0 0.00 0.00 0.00 86 1020.1
20260506191502 12 143 1.6 12.9 0.00 0.00 0.00 87 1020.1
20260506190005 12 131 4.8 19.3 0.00 0.00 0.00 83 1020.1
20260506184504 12 169 3.2 11.3 0.00 0.00 0.00 83 1020.0
20260506183005 12 220 1.6 11.3 0.00 0.00 0.00 84 1020.0
20260506181504 12 147 3.2 11.3 0.00 0.00 0.00 85 1020.0
20260506180005 12 238 3.2 11.3 0.00 0.00 0.00 86 1020.0
20260506174506 12 238 4.8 9.7 0.00 0.00 0.00 85 1019.5
20260506173004 12 172 4.8 11.3 0.00 0.00 0.00 85 1019.7
20260506171511 12 170 4.8 12.9 0.00 0.00 0.00 85 1019.9
20260506170004 12 318 1.6 11.3 0.00 0.00 0.00 85 1020.0
20260506164503 12 130 1.6 8.0 0.00 0.00 0.00 85 1019.7
20260506163007 12 275 4.8 9.7 0.00 0.00 0.00 85 1019.7
20260506161505 12 207 4.8 14.5 0.00 0.00 0.00 85 1019.4
20260506160006 12 219 6.4 12.9 0.00 0.00 0.00 86 1019.2
20260506154506 12 205 6.4 11.3 0.00 0.00 0.00 87 1019.0
20260506153006 12 253 3.2 6.4 0.00 0.00 0.00 87 1019.4
20260506151507 12 257 1.6 6.4 0.00 0.00 0.00 87 1019.7
20260506150004 12 121 1.6 8.0 0.00 0.00 0.00 87 1019.3
20260506144506 11 159 3.2 8.0 0.00 0.00 0.00 88 1019.1
20260506143008 11 224 6.4 8.0 0.00 0.00 0.00 87 1019.2
20260506141507 12 169 3.2 6.4 0.00 0.00 0.00 87 1019.0
20260506140007 -17 0.0 0.0 0.00 0.00 0.00 1018.9
20260506134506 -17 0.0 0.0 0.00 0.00 0.00 1019.1
20260506133009 -17 0.0 0.0 0.00 0.00 0.00 1018.8
20260506131516 -17 0.0 0.0 0.00 0.00 0.00 1018.7
20260506130009 -17 0.0 0.0 0.00 0.00 0.00 1018.7
20260506124507 -17 0.0 0.0 0.00 0.00 0.00 1018.6
20260506123011 -17 0.0 0.0 0.00 0.00 0.00 1018.6
20260506121510 -17 0.0 4.8 0.00 0.00 0.00 85 1018.3
20260506120018 12 145 3.2 6.4 0.00 0.00 0.00 85 1018.3
20260506114512 12 162 0.0 3.2 0.00 0.00 0.00 86 1018.3
20260506113011 12 150 0.0 0.0 0.00 0.00 0.00 86 1018.1
20260506111511 12 237 1.6 4.8 0.00 0.00 0.00 86 1018.0
20260506110012 11 212 0.0 4.8 0.00 0.00 0.00 86 1017.9
20260506104512 12 221 3.2 6.4 0.00 0.00 0.00 86 1017.7
20260506103014 11 202 1.6 4.8 0.00 0.00 0.00 87 1017.6
20260506101513 11 226 1.6 6.4 0.00 0.00 0.00 87 1017.5
20260506100026 11 238 0.0 3.2 0.00 0.00 0.00 88 1017.5
20260506094513 11 210 0.0 0.0 0.00 0.00 0.00 87 1017.3
20260506093018 12 225 0.0 4.8 0.00 0.00 0.00 86 1017.3
20260506091512 12 148 0.0 0.0 0.00 0.00 0.00 85 1017.2
20260506090017 12 148 0.0 0.0 0.00 0.00 0.00 86 1017.2
20260506084523 12 123 0.0 0.0 0.00 0.00 0.00 87 1017.0
20260506083013 12 90 0.0 0.0 0.00 0.00 0.00 87 1016.8
20260506081517 12 61 0.0 0.0 0.00 0.00 0.00 86 1016.7
20260506073014 12 61 0.0 0.0 0.00 0.00 0.00 84 1016.5
20260506071518 12 61 0.0 0.0 0.00 0.00 0.00 84 1016.6
20260506061516 13 61 0.0 0.0 0.00 0.00 0.00 81 1016.3
20260506044503 15 163 0.0 0.0 0.00 0.00 0.00 76 1015.3
20260506043010 15 163 0.0 0.0 0.00 0.00 0.00 75 1015.3
20260506041514 16 163 0.0 0.0 0.00 0.00 0.00 73 1015.2
20260506040033 16 163 0.0 0.0 0.00 0.00 0.00 73 1015.1
20260506034526 16 163 0.0 0.0 0.00 0.00 0.00 72 1015.1
20260506033008 16 163 0.0 0.0 0.00 0.00 0.00 71 1015.0